Year,Month,Day,Hour,Minute,Value (Times are PST for temperature in C)
2015,10,15,00,00,7.30
2015,10,15,00,01,7.40
2015,10,15,00,02,7.50
2015,10,15,00,03,7.60
2015,10,15,00,04,7.60
2015,10,15,00,05,7.70
2015,10,15,00,06,7.70
2015,10,15,00,07,7.70
2015,10,15,00,08,7.60
2015,10,15,00,09,7.60
2015,10,15,00,10,7.50
2015,10,15,00,11,7.40
2015,10,15,00,12,7.40
2015,10,15,00,13,7.40
2015,10,15,00,14,7.50
2015,10,15,00,15,7.50
2015,10,15,00,16,7.50
2015,10,15,00,17,7.50
2015,10,15,00,18,7.50
2015,10,15,00,19,7.50
2015,10,15,00,20,7.50
2015,10,15,00,21,7.50
2015,10,15,00,22,7.40
2015,10,15,00,23,7.40
2015,10,15,00,24,7.40
2015,10,15,00,25,7.30
2015,10,15,00,26,7.30
2015,10,15,00,27,7.30
2015,10,15,00,28,7.20
2015,10,15,00,29,7.20
2015,10,15,00,30,7.20
2015,10,15,00,31,7.20
2015,10,15,00,32,7.20
2015,10,15,00,33,7.20
2015,10,15,00,34,7.30
2015,10,15,00,35,7.30
2015,10,15,00,36,7.30
2015,10,15,00,37,7.40
2015,10,15,00,38,7.40
2015,10,15,00,39,7.40
2015,10,15,00,40,7.40
2015,10,15,00,41,7.40
2015,10,15,00,42,7.30
2015,10,15,00,43,7.30
2015,10,15,00,44,7.20
2015,10,15,00,45,7.10
2015,10,15,00,46,7.00
2015,10,15,00,47,7.00
2015,10,15,00,48,6.90
2015,10,15,00,49,6.90
2015,10,15,00,50,6.90
2015,10,15,00,51,7.00
2015,10,15,00,52,7.10
2015,10,15,00,53,7.20
2015,10,15,00,54,7.20
2015,10,15,00,55,7.30
2015,10,15,00,56,7.30
2015,10,15,00,57,7.30
2015,10,15,00,58,7.40
2015,10,15,00,59,7.40
2015,10,15,01,00,7.50
2015,10,15,01,01,7.50
2015,10,15,01,02,7.50
2015,10,15,01,03,7.50
2015,10,15,01,04,7.50
2015,10,15,01,05,7.50
2015,10,15,01,06,7.50
2015,10,15,01,07,7.50
2015,10,15,01,08,7.60
2015,10,15,01,09,7.60
2015,10,15,01,10,7.70
2015,10,15,01,11,7.70
2015,10,15,01,12,7.80
2015,10,15,01,13,7.80
2015,10,15,01,14,7.80
2015,10,15,01,15,7.80
2015,10,15,01,16,7.80
2015,10,15,01,17,7.80
2015,10,15,01,18,7.70
2015,10,15,01,19,7.60
2015,10,15,01,20,7.50
2015,10,15,01,21,7.50
2015,10,15,01,22,7.50
2015,10,15,01,23,7.40
2015,10,15,01,24,7.40
2015,10,15,01,25,7.40
2015,10,15,01,26,7.40
2015,10,15,01,27,7.40
2015,10,15,01,28,7.50
2015,10,15,01,29,7.50
2015,10,15,01,30,7.60
2015,10,15,01,31,7.60
2015,10,15,01,32,7.60
2015,10,15,01,33,7.60
2015,10,15,01,34,7.60
2015,10,15,01,35,7.60
2015,10,15,01,36,7.60
2015,10,15,01,37,7.70
2015,10,15,01,38,7.70
2015,10,15,01,39,7.70
2015,10,15,01,40,7.70
2015,10,15,01,41,7.70
2015,10,15,01,42,7.70
2015,10,15,01,43,7.70
2015,10,15,01,44,7.70
2015,10,15,01,45,7.70
2015,10,15,01,46,7.70
2015,10,15,01,47,7.70
2015,10,15,01,48,7.70
2015,10,15,01,49,7.70
2015,10,15,01,50,7.70
2015,10,15,01,51,7.70
2015,10,15,01,52,7.70
2015,10,15,01,53,7.70
2015,10,15,01,54,7.80
2015,10,15,01,55,7.80
2015,10,15,01,56,7.80
2015,10,15,01,57,7.80
2015,10,15,01,58,7.70
2015,10,15,01,59,7.70
2015,10,15,02,00,7.70
2015,10,15,02,01,7.60
2015,10,15,02,02,7.60
2015,10,15,02,03,7.60
2015,10,15,02,04,7.60
2015,10,15,02,05,7.60
2015,10,15,02,06,7.60
2015,10,15,02,07,7.60
2015,10,15,02,08,7.60
2015,10,15,02,09,7.60
2015,10,15,02,10,7.50
2015,10,15,02,11,7.50
2015,10,15,02,12,7.50
2015,10,15,02,13,7.50
2015,10,15,02,14,7.60
2015,10,15,02,15,7.60
2015,10,15,02,16,7.60
2015,10,15,02,17,7.60
2015,10,15,02,18,7.60
2015,10,15,02,19,7.60
2015,10,15,02,20,7.60
2015,10,15,02,21,7.60
2015,10,15,02,22,7.70
2015,10,15,02,23,7.70
2015,10,15,02,24,7.70
2015,10,15,02,25,7.80
2015,10,15,02,26,7.80
2015,10,15,02,27,7.70
2015,10,15,02,28,7.70
2015,10,15,02,29,7.50
2015,10,15,02,30,7.50
2015,10,15,02,31,7.40
2015,10,15,02,32,7.30
2015,10,15,02,33,7.30
2015,10,15,02,34,7.20
2015,10,15,02,35,7.20
2015,10,15,02,36,7.20
2015,10,15,02,37,7.10
2015,10,15,02,38,7.00
2015,10,15,02,39,7.00
2015,10,15,02,40,7.00
2015,10,15,02,41,7.00
2015,10,15,02,42,6.90
2015,10,15,02,43,6.90
2015,10,15,02,44,7.00
2015,10,15,02,45,7.00
2015,10,15,02,46,7.10
2015,10,15,02,47,7.10
2015,10,15,02,48,7.20
2015,10,15,02,49,7.20
2015,10,15,02,50,7.20
2015,10,15,02,51,7.20
2015,10,15,02,52,7.20
2015,10,15,02,53,7.30
2015,10,15,02,54,7.30
2015,10,15,02,55,7.30
2015,10,15,02,56,7.30
2015,10,15,02,57,7.30
2015,10,15,02,58,7.30
2015,10,15,02,59,7.30
2015,10,15,03,00,7.30
2015,10,15,03,01,7.30
2015,10,15,03,02,7.20
2015,10,15,03,03,7.20
2015,10,15,03,04,7.10
2015,10,15,03,05,7.10
2015,10,15,03,06,7.00
2015,10,15,03,07,7.00
2015,10,15,03,08,6.90
2015,10,15,03,09,6.80
2015,10,15,03,10,6.80
2015,10,15,03,11,6.80
2015,10,15,03,12,6.70
2015,10,15,03,13,6.70
2015,10,15,03,14,6.80
2015,10,15,03,15,6.80
2015,10,15,03,16,6.80
2015,10,15,03,17,6.80
2015,10,15,03,18,6.90
2015,10,15,03,19,7.00
2015,10,15,03,20,7.00
2015,10,15,03,21,7.10
2015,10,15,03,22,7.20
2015,10,15,03,23,7.30
2015,10,15,03,24,7.40
2015,10,15,03,25,7.40
2015,10,15,03,26,7.40
2015,10,15,03,27,7.40
2015,10,15,03,28,7.30
2015,10,15,03,29,7.20
2015,10,15,03,30,7.20
2015,10,15,03,31,7.10
2015,10,15,03,32,7.10
2015,10,15,03,33,7.00
2015,10,15,03,34,7.00
2015,10,15,03,35,7.00
2015,10,15,03,36,7.00
2015,10,15,03,37,7.00
2015,10,15,03,38,6.90
2015,10,15,03,39,6.90
2015,10,15,03,40,7.00
2015,10,15,03,41,7.10
2015,10,15,03,42,7.10
2015,10,15,03,43,7.10
2015,10,15,03,44,7.20
2015,10,15,03,45,7.20
2015,10,15,03,46,7.10
2015,10,15,03,47,7.10
2015,10,15,03,48,7.10
2015,10,15,03,49,7.00
2015,10,15,03,50,6.90
2015,10,15,03,51,6.90
2015,10,15,03,52,6.90
2015,10,15,03,53,6.90
2015,10,15,03,54,6.90
2015,10,15,03,55,6.90
2015,10,15,03,56,7.00
2015,10,15,03,57,7.00
2015,10,15,03,58,7.00
2015,10,15,03,59,7.00
2015,10,15,04,00,6.90
2015,10,15,04,01,6.90
2015,10,15,04,02,6.80
2015,10,15,04,03,6.80
2015,10,15,04,04,6.70
2015,10,15,04,05,6.60
2015,10,15,04,06,6.60
2015,10,15,04,07,6.60
2015,10,15,04,08,6.60
2015,10,15,04,09,6.70
2015,10,15,04,10,6.80
2015,10,15,04,11,6.80
2015,10,15,04,12,6.90
2015,10,15,04,13,7.00
2015,10,15,04,14,7.00
2015,10,15,04,15,7.00
2015,10,15,04,16,7.00
2015,10,15,04,17,7.00
2015,10,15,04,18,7.00
2015,10,15,04,19,7.00
2015,10,15,04,20,6.90
2015,10,15,04,21,6.90
2015,10,15,04,22,6.80
2015,10,15,04,23,6.80
2015,10,15,04,24,6.70
2015,10,15,04,25,6.70
2015,10,15,04,26,6.60
2015,10,15,04,27,6.60
2015,10,15,04,28,6.60
2015,10,15,04,29,6.60
2015,10,15,04,30,6.60
2015,10,15,04,31,6.60
2015,10,15,04,32,6.70
2015,10,15,04,33,6.70
2015,10,15,04,34,6.70
2015,10,15,04,35,6.80
2015,10,15,04,36,6.80
2015,10,15,04,37,6.90
2015,10,15,04,38,6.90
2015,10,15,04,39,6.90
2015,10,15,04,40,6.80
2015,10,15,04,41,6.80
2015,10,15,04,42,6.70
2015,10,15,04,43,6.70
2015,10,15,04,44,6.70
2015,10,15,04,45,6.80
2015,10,15,04,46,6.90
2015,10,15,04,47,7.00
2015,10,15,04,48,7.10
2015,10,15,04,49,7.10
2015,10,15,04,50,7.10
2015,10,15,04,51,7.10
2015,10,15,04,52,7.10
2015,10,15,04,53,7.00
2015,10,15,04,54,7.00
2015,10,15,04,55,7.00
2015,10,15,04,56,6.90
2015,10,15,04,57,6.90
2015,10,15,04,58,6.90
2015,10,15,04,59,6.80
2015,10,15,05,00,6.70
2015,10,15,05,01,6.60
2015,10,15,05,02,6.50
2015,10,15,05,03,6.50
2015,10,15,05,04,6.50
2015,10,15,05,05,6.50
2015,10,15,05,06,6.50
2015,10,15,05,07,6.40
2015,10,15,05,08,6.40
2015,10,15,05,09,6.40
2015,10,15,05,10,6.40
2015,10,15,05,11,6.30
2015,10,15,05,12,6.30
2015,10,15,05,13,6.30
2015,10,15,05,14,6.30
2015,10,15,05,15,6.20
2015,10,15,05,16,6.20
2015,10,15,05,17,6.10
2015,10,15,05,18,6.10
2015,10,15,05,19,6.00
2015,10,15,05,20,6.00
2015,10,15,05,21,6.00
2015,10,15,05,22,5.90
2015,10,15,05,23,5.90
2015,10,15,05,24,5.90
2015,10,15,05,25,5.90
2015,10,15,05,26,5.90
2015,10,15,05,27,5.90
2015,10,15,05,28,5.90
2015,10,15,05,29,5.90
2015,10,15,05,30,5.90
2015,10,15,05,31,5.90
2015,10,15,05,32,5.90
2015,10,15,05,33,5.80
2015,10,15,05,34,5.80
2015,10,15,05,35,5.80
2015,10,15,05,36,5.80
2015,10,15,05,37,5.80
2015,10,15,05,38,5.70
2015,10,15,05,39,5.70
2015,10,15,05,40,5.70
2015,10,15,05,41,5.70
2015,10,15,05,42,5.80
2015,10,15,05,43,5.80
2015,10,15,05,44,5.80
2015,10,15,05,45,5.80
2015,10,15,05,46,5.80
2015,10,15,05,47,5.80
2015,10,15,05,48,5.80
2015,10,15,05,49,5.80
2015,10,15,05,50,5.80
2015,10,15,05,51,5.80
2015,10,15,05,52,5.80
2015,10,15,05,53,5.80
2015,10,15,05,54,5.90
2015,10,15,05,55,5.90
2015,10,15,05,56,6.00
2015,10,15,05,57,6.00
2015,10,15,05,58,6.10
2015,10,15,05,59,6.10
2015,10,15,06,00,6.10
2015,10,15,06,01,6.00
2015,10,15,06,02,6.00
2015,10,15,06,03,6.00
2015,10,15,06,04,6.00
2015,10,15,06,05,6.00
2015,10,15,06,06,6.10
2015,10,15,06,07,6.10
2015,10,15,06,08,6.10
2015,10,15,06,09,6.10
2015,10,15,06,10,6.00
2015,10,15,06,11,6.00
2015,10,15,06,12,5.90
2015,10,15,06,13,5.90
2015,10,15,06,14,5.90
2015,10,15,06,15,5.90
2015,10,15,06,16,6.00
2015,10,15,06,17,6.10
2015,10,15,06,18,6.10
2015,10,15,06,19,6.10
2015,10,15,06,20,6.10
2015,10,15,06,21,6.00
2015,10,15,06,22,6.00
2015,10,15,06,23,5.90
2015,10,15,06,24,5.90
2015,10,15,06,25,5.90
2015,10,15,06,26,6.00
2015,10,15,06,27,6.00
2015,10,15,06,28,6.10
2015,10,15,06,29,6.10
2015,10,15,06,30,6.10
2015,10,15,06,31,6.10
2015,10,15,06,32,6.10
2015,10,15,06,33,6.10
2015,10,15,06,34,6.10
2015,10,15,06,35,6.00
2015,10,15,06,36,6.00
2015,10,15,06,37,5.90
2015,10,15,06,38,5.90
2015,10,15,06,39,5.80
2015,10,15,06,40,5.80
2015,10,15,06,41,5.80
2015,10,15,06,42,5.80
2015,10,15,06,43,5.80
2015,10,15,06,44,5.80
2015,10,15,06,45,5.70
2015,10,15,06,46,5.70
2015,10,15,06,47,5.60
2015,10,15,06,48,5.60
2015,10,15,06,49,5.60
2015,10,15,06,50,5.60
2015,10,15,06,51,5.60
2015,10,15,06,52,5.60
2015,10,15,06,53,5.60
2015,10,15,06,54,5.60
2015,10,15,06,55,5.60
2015,10,15,06,56,5.60
2015,10,15,06,57,5.50
2015,10,15,06,58,5.50
2015,10,15,06,59,5.50
2015,10,15,07,00,5.50
2015,10,15,07,01,5.50
2015,10,15,07,02,5.60
2015,10,15,07,03,5.60
2015,10,15,07,04,5.70
2015,10,15,07,05,5.70
2015,10,15,07,06,5.80
2015,10,15,07,07,5.80
2015,10,15,07,08,5.80
2015,10,15,07,09,5.80
2015,10,15,07,10,5.80
2015,10,15,07,11,5.80
2015,10,15,07,12,5.70
2015,10,15,07,13,5.70
2015,10,15,07,14,5.70
2015,10,15,07,15,5.80
2015,10,15,07,16,5.80
2015,10,15,07,17,5.80
2015,10,15,07,18,5.80
2015,10,15,07,19,5.90
2015,10,15,07,20,5.90
2015,10,15,07,21,6.00
2015,10,15,07,22,6.00
2015,10,15,07,23,6.00
2015,10,15,07,24,6.00
2015,10,15,07,25,6.00
2015,10,15,07,26,6.10
2015,10,15,07,27,6.00
2015,10,15,07,28,6.00
2015,10,15,07,29,6.00
2015,10,15,07,30,5.90
2015,10,15,07,31,5.90
2015,10,15,07,32,5.80
2015,10,15,07,33,5.80
2015,10,15,07,34,5.80
2015,10,15,07,35,5.70
2015,10,15,07,36,5.70
2015,10,15,07,37,5.60
2015,10,15,07,38,5.60
2015,10,15,07,39,5.60
2015,10,15,07,40,5.50
2015,10,15,07,41,5.50
2015,10,15,07,42,5.50
2015,10,15,07,43,5.50
2015,10,15,07,44,5.50
2015,10,15,07,45,5.60
2015,10,15,07,46,5.60
2015,10,15,07,47,5.70
2015,10,15,07,48,5.70
2015,10,15,07,49,5.80
2015,10,15,07,50,6.00
2015,10,15,07,51,6.10
2015,10,15,07,52,6.20
2015,10,15,07,53,6.30
2015,10,15,07,54,6.40
2015,10,15,07,55,6.40
2015,10,15,07,56,6.30
2015,10,15,07,57,6.30
2015,10,15,07,58,6.20
2015,10,15,07,59,6.20
2015,10,15,08,00,6.10
2015,10,15,08,01,6.10
2015,10,15,08,02,6.10
2015,10,15,08,03,6.10
2015,10,15,08,04,6.10
2015,10,15,08,05,6.10
2015,10,15,08,06,6.10
2015,10,15,08,07,6.10
2015,10,15,08,08,6.10
2015,10,15,08,09,6.10
2015,10,15,08,10,6.00
2015,10,15,08,11,6.00
2015,10,15,08,12,6.00
2015,10,15,08,13,6.00
2015,10,15,08,14,6.00
2015,10,15,08,15,6.00
2015,10,15,08,16,5.90
2015,10,15,08,17,5.90
2015,10,15,08,18,5.90
2015,10,15,08,19,5.90
2015,10,15,08,20,5.80
2015,10,15,08,21,5.80
2015,10,15,08,22,5.80
2015,10,15,08,23,5.80
2015,10,15,08,24,5.80
2015,10,15,08,25,5.90
2015,10,15,08,26,5.90
2015,10,15,08,27,5.90
2015,10,15,08,28,6.00
2015,10,15,08,29,6.00
2015,10,15,08,30,6.10
2015,10,15,08,31,6.10
2015,10,15,08,32,6.20
2015,10,15,08,33,6.20
2015,10,15,08,34,6.30
2015,10,15,08,35,6.40
2015,10,15,08,36,6.50
2015,10,15,08,37,6.60
2015,10,15,08,38,6.70
2015,10,15,08,39,6.70
2015,10,15,08,40,6.80
2015,10,15,08,41,6.90
2015,10,15,08,42,6.90
2015,10,15,08,43,6.90
2015,10,15,08,44,6.90
2015,10,15,08,45,6.90
2015,10,15,08,46,6.90
2015,10,15,08,47,7.00
2015,10,15,08,48,7.00
2015,10,15,08,49,7.00
2015,10,15,08,50,7.00
2015,10,15,08,51,7.00
2015,10,15,08,52,7.00
2015,10,15,08,53,7.00
2015,10,15,08,54,7.10
2015,10,15,08,55,7.10
2015,10,15,08,56,7.10
2015,10,15,08,57,7.10
2015,10,15,08,58,7.10
2015,10,15,08,59,7.20
2015,10,15,09,00,7.20
2015,10,15,09,01,7.20
2015,10,15,09,02,7.20
2015,10,15,09,03,7.30
2015,10,15,09,04,7.30
2015,10,15,09,05,7.30
2015,10,15,09,06,7.30
2015,10,15,09,07,7.30
2015,10,15,09,08,7.40
2015,10,15,09,09,7.40
2015,10,15,09,10,7.50
2015,10,15,09,11,7.60
2015,10,15,09,12,7.60
2015,10,15,09,13,7.70
2015,10,15,09,14,7.80
2015,10,15,09,15,7.90
2015,10,15,09,16,8.00
2015,10,15,09,17,8.00
2015,10,15,09,18,8.10
2015,10,15,09,19,8.10
2015,10,15,09,20,8.20
2015,10,15,09,21,8.20
2015,10,15,09,22,8.20
2015,10,15,09,23,8.20
2015,10,15,09,24,8.30
2015,10,15,09,25,8.30
2015,10,15,09,26,8.30
2015,10,15,09,27,8.30
2015,10,15,09,28,8.40
2015,10,15,09,29,8.40
2015,10,15,09,30,8.50
2015,10,15,09,31,8.50
2015,10,15,09,32,8.50
2015,10,15,09,33,8.50
2015,10,15,09,34,8.50
2015,10,15,09,35,8.50
2015,10,15,09,36,8.60
2015,10,15,09,37,8.60
2015,10,15,09,38,8.70
2015,10,15,09,39,8.70
2015,10,15,09,40,8.70
2015,10,15,09,41,8.70
2015,10,15,09,42,8.80
2015,10,15,09,43,8.80
2015,10,15,09,44,8.90
2015,10,15,09,45,8.90
2015,10,15,09,46,9.00
2015,10,15,09,47,9.00
2015,10,15,09,48,9.10
2015,10,15,09,49,9.20
2015,10,15,09,50,9.20
2015,10,15,09,51,9.30
2015,10,15,09,52,9.40
2015,10,15,09,53,9.50
2015,10,15,09,54,9.60
2015,10,15,09,55,9.60
2015,10,15,09,56,9.70
2015,10,15,09,57,9.80
2015,10,15,09,58,9.90
2015,10,15,09,59,9.90
2015,10,15,10,00,10.00
2015,10,15,10,01,10.10
2015,10,15,10,02,10.20
2015,10,15,10,03,10.30
2015,10,15,10,04,10.40
2015,10,15,10,05,10.50
2015,10,15,10,06,10.60
2015,10,15,10,07,10.70
2015,10,15,10,08,10.80
2015,10,15,10,09,10.90
2015,10,15,10,10,11.00
2015,10,15,10,11,11.00
2015,10,15,10,12,11.10
2015,10,15,10,13,11.20
2015,10,15,10,14,11.30
2015,10,15,10,15,11.40
2015,10,15,10,16,11.40
2015,10,15,10,17,11.50
2015,10,15,10,18,11.60
2015,10,15,10,19,11.70
2015,10,15,10,20,11.80
2015,10,15,10,21,11.80
2015,10,15,10,22,11.90
2015,10,15,10,23,12.00
2015,10,15,10,24,12.00
2015,10,15,10,25,12.00
2015,10,15,10,26,12.10
2015,10,15,10,27,12.10
2015,10,15,10,28,12.10
2015,10,15,10,29,12.20
2015,10,15,10,30,12.20
2015,10,15,10,31,12.20
2015,10,15,10,32,12.20
2015,10,15,10,33,12.30
2015,10,15,10,34,12.30
2015,10,15,10,35,12.30
2015,10,15,10,36,12.30
2015,10,15,10,37,12.30
2015,10,15,10,38,12.30
2015,10,15,10,39,12.30
2015,10,15,10,40,12.30
2015,10,15,10,41,12.30
2015,10,15,10,42,12.40
2015,10,15,10,43,12.40
2015,10,15,10,44,12.40
2015,10,15,10,45,12.40
2015,10,15,10,46,12.40
2015,10,15,10,47,12.40
2015,10,15,10,48,12.40
2015,10,15,10,49,12.50
2015,10,15,10,50,12.50
2015,10,15,10,51,12.50
2015,10,15,10,52,12.60
2015,10,15,10,53,12.60
2015,10,15,10,54,12.70
2015,10,15,10,55,12.70
2015,10,15,10,56,12.80
2015,10,15,10,57,12.90
2015,10,15,10,58,12.90
2015,10,15,10,59,13.00
2015,10,15,11,00,13.10
2015,10,15,11,01,13.10
2015,10,15,11,02,13.10
2015,10,15,11,03,13.20
2015,10,15,11,04,13.20
2015,10,15,11,05,13.20
2015,10,15,11,06,13.20
2015,10,15,11,07,13.20
2015,10,15,11,08,13.20
2015,10,15,11,09,13.20
2015,10,15,11,10,13.20
2015,10,15,11,11,13.20
2015,10,15,11,12,13.20
2015,10,15,11,13,13.20
2015,10,15,11,14,13.20
2015,10,15,11,15,13.30
2015,10,15,11,16,13.30
2015,10,15,11,17,13.30
2015,10,15,11,18,13.30
2015,10,15,11,19,13.30
2015,10,15,11,20,13.30
2015,10,15,11,21,13.20
2015,10,15,11,22,13.20
2015,10,15,11,23,13.10
2015,10,15,11,24,13.10
2015,10,15,11,25,13.00
2015,10,15,11,26,13.00
2015,10,15,11,27,12.90
2015,10,15,11,28,12.90
2015,10,15,11,29,12.90
2015,10,15,11,30,13.00
2015,10,15,11,31,13.00
2015,10,15,11,32,13.00
2015,10,15,11,33,13.00
2015,10,15,11,34,13.00
2015,10,15,11,35,13.10
2015,10,15,11,36,13.10
2015,10,15,11,37,13.10
2015,10,15,11,38,13.10
2015,10,15,11,39,13.20
2015,10,15,11,40,13.20
2015,10,15,11,41,13.20
2015,10,15,11,42,13.30
2015,10,15,11,43,13.30
2015,10,15,11,44,13.30
2015,10,15,11,45,13.40
2015,10,15,11,46,13.40
2015,10,15,11,47,13.40
2015,10,15,11,48,13.40
2015,10,15,11,49,13.40
2015,10,15,11,50,13.50
2015,10,15,11,51,13.50
2015,10,15,11,52,13.50
2015,10,15,11,53,13.60
2015,10,15,11,54,13.60
2015,10,15,11,55,13.60
2015,10,15,11,56,13.60
2015,10,15,11,57,13.70
2015,10,15,11,58,13.70
2015,10,15,11,59,13.70
2015,10,15,12,00,13.70
2015,10,15,12,01,13.70
2015,10,15,12,02,13.80
2015,10,15,12,03,13.80
2015,10,15,12,04,13.80
2015,10,15,12,05,13.80
2015,10,15,12,06,13.90
2015,10,15,12,07,13.90
2015,10,15,12,08,13.90
2015,10,15,12,09,14.00
2015,10,15,12,10,14.00
2015,10,15,12,11,14.10
2015,10,15,12,12,14.10
2015,10,15,12,13,14.10
2015,10,15,12,14,14.20
2015,10,15,12,15,14.20
2015,10,15,12,16,14.10
2015,10,15,12,17,14.10
2015,10,15,12,18,14.10
2015,10,15,12,19,14.10
2015,10,15,12,20,14.10
2015,10,15,12,21,14.10
2015,10,15,12,22,14.10
2015,10,15,12,23,14.20
2015,10,15,12,24,14.20
2015,10,15,12,25,14.30
2015,10,15,12,26,14.30
2015,10,15,12,27,14.30
2015,10,15,12,28,14.40
2015,10,15,12,29,14.50
2015,10,15,12,30,14.50
2015,10,15,12,31,14.60
2015,10,15,12,32,14.60
2015,10,15,12,33,14.60
2015,10,15,12,34,14.70
2015,10,15,12,35,14.60
2015,10,15,12,36,14.60
2015,10,15,12,37,14.60
2015,10,15,12,38,14.60
2015,10,15,12,39,14.60
2015,10,15,12,40,14.60
2015,10,15,12,41,14.60
2015,10,15,12,42,14.60
2015,10,15,12,43,14.70
2015,10,15,12,44,14.80
2015,10,15,12,45,14.80
2015,10,15,12,46,14.80
2015,10,15,12,47,14.80
2015,10,15,12,48,14.80
2015,10,15,12,49,14.80
2015,10,15,12,50,14.80
2015,10,15,12,51,14.80
2015,10,15,12,52,14.70
2015,10,15,12,53,14.70
2015,10,15,12,54,14.60
2015,10,15,12,55,14.60
2015,10,15,12,56,14.60
2015,10,15,12,57,14.50
2015,10,15,12,58,14.50
2015,10,15,12,59,14.60
2015,10,15,13,00,14.60
2015,10,15,13,01,14.60
2015,10,15,13,02,14.70
2015,10,15,13,03,14.70
2015,10,15,13,04,14.70
2015,10,15,13,05,14.70
2015,10,15,13,06,14.80
2015,10,15,13,07,14.90
2015,10,15,13,08,14.90
2015,10,15,13,09,14.90
2015,10,15,13,10,14.90
2015,10,15,13,11,15.00
2015,10,15,13,12,15.00
2015,10,15,13,13,15.10
2015,10,15,13,14,15.10
2015,10,15,13,15,15.10
2015,10,15,13,16,15.10
2015,10,15,13,17,15.10
2015,10,15,13,18,15.20
2015,10,15,13,19,15.20
2015,10,15,13,20,15.20
2015,10,15,13,21,15.20
2015,10,15,13,22,15.20
2015,10,15,13,23,15.10
2015,10,15,13,24,15.10
2015,10,15,13,25,15.10
2015,10,15,13,26,15.10
2015,10,15,13,27,15.00
2015,10,15,13,28,15.00
2015,10,15,13,29,14.90
2015,10,15,13,30,15.00
2015,10,15,13,31,15.00
2015,10,15,13,32,15.00
2015,10,15,13,33,15.10
2015,10,15,13,34,15.10
2015,10,15,13,35,15.10
2015,10,15,13,36,15.10
2015,10,15,13,37,15.20
2015,10,15,13,38,15.20
2015,10,15,13,39,15.20
2015,10,15,13,40,15.30
2015,10,15,13,41,15.30
2015,10,15,13,42,15.30
2015,10,15,13,43,15.30
2015,10,15,13,44,15.30
2015,10,15,13,45,15.40
2015,10,15,13,46,15.40
2015,10,15,13,47,15.50
2015,10,15,13,48,15.50
2015,10,15,13,49,15.60
2015,10,15,13,50,15.60
2015,10,15,13,51,15.60
2015,10,15,13,52,15.70
2015,10,15,13,53,15.70
2015,10,15,13,54,15.70
2015,10,15,13,55,15.70
2015,10,15,13,56,15.70
2015,10,15,13,57,15.80
2015,10,15,13,58,15.80
2015,10,15,13,59,15.80
2015,10,15,14,00,15.80
2015,10,15,14,01,15.90
2015,10,15,14,02,16.00
2015,10,15,14,03,16.00
2015,10,15,14,04,16.00
2015,10,15,14,05,16.00
2015,10,15,14,06,16.10
2015,10,15,14,07,16.10
2015,10,15,14,08,16.20
2015,10,15,14,09,16.20
2015,10,15,14,10,16.20
2015,10,15,14,11,16.10
2015,10,15,14,12,16.10
2015,10,15,14,13,16.20
2015,10,15,14,14,16.20
2015,10,15,14,15,16.30
2015,10,15,14,16,16.30
2015,10,15,14,17,16.40
2015,10,15,14,18,16.50
2015,10,15,14,19,16.50
2015,10,15,14,20,16.60
2015,10,15,14,21,16.70
2015,10,15,14,22,16.80
2015,10,15,14,23,16.80
2015,10,15,14,24,16.80
2015,10,15,14,25,16.90
2015,10,15,14,26,16.90
2015,10,15,14,27,16.90
2015,10,15,14,28,16.90
2015,10,15,14,29,16.90
2015,10,15,14,30,16.80
2015,10,15,14,31,16.80
2015,10,15,14,32,16.80
2015,10,15,14,33,16.80
2015,10,15,14,34,16.80
2015,10,15,14,35,16.80
2015,10,15,14,36,16.70
2015,10,15,14,37,16.70
2015,10,15,14,38,16.70
2015,10,15,14,39,16.70
2015,10,15,14,40,16.70
2015,10,15,14,41,16.70
2015,10,15,14,42,16.70
2015,10,15,14,43,16.80
2015,10,15,14,44,16.80
2015,10,15,14,45,16.80
2015,10,15,14,46,16.80
2015,10,15,14,47,16.80
2015,10,15,14,48,16.80
2015,10,15,14,49,16.80
2015,10,15,14,50,16.80
2015,10,15,14,51,16.70
2015,10,15,14,52,16.70
2015,10,15,14,53,16.70
2015,10,15,14,54,16.80
2015,10,15,14,55,16.80
2015,10,15,14,56,16.80
2015,10,15,14,57,16.80
2015,10,15,14,58,16.80
2015,10,15,14,59,16.90
2015,10,15,15,00,16.80
2015,10,15,15,01,16.80
2015,10,15,15,02,16.90
2015,10,15,15,03,17.00
2015,10,15,15,04,17.10
2015,10,15,15,05,17.10
2015,10,15,15,06,17.10
2015,10,15,15,07,17.10
2015,10,15,15,08,17.10
2015,10,15,15,09,17.10
2015,10,15,15,10,17.10
2015,10,15,15,11,17.10
2015,10,15,15,12,17.10
2015,10,15,15,13,17.10
2015,10,15,15,14,17.20
2015,10,15,15,15,17.20
2015,10,15,15,16,17.20
2015,10,15,15,17,17.20
2015,10,15,15,18,17.30
2015,10,15,15,19,17.30
2015,10,15,15,20,17.30
2015,10,15,15,21,17.30
2015,10,15,15,22,17.40
2015,10,15,15,23,17.40
2015,10,15,15,24,17.50
2015,10,15,15,25,17.50
2015,10,15,15,26,17.50
2015,10,15,15,27,17.60
2015,10,15,15,28,17.60
2015,10,15,15,29,17.60
2015,10,15,15,30,17.60
2015,10,15,15,31,17.60
2015,10,15,15,32,17.60
2015,10,15,15,33,17.60
2015,10,15,15,34,17.50
2015,10,15,15,35,17.50
2015,10,15,15,36,17.40
2015,10,15,15,37,17.30
2015,10,15,15,38,17.20
2015,10,15,15,39,17.10
2015,10,15,15,40,17.00
2015,10,15,15,41,16.90
2015,10,15,15,42,16.80
2015,10,15,15,43,16.80
2015,10,15,15,44,16.70
2015,10,15,15,45,16.70
2015,10,15,15,46,16.70
2015,10,15,15,47,16.70
2015,10,15,15,48,16.70
2015,10,15,15,49,16.70
2015,10,15,15,50,16.70
2015,10,15,15,51,16.70
2015,10,15,15,52,16.70
2015,10,15,15,53,16.80
2015,10,15,15,54,16.80
2015,10,15,15,55,16.80
2015,10,15,15,56,16.80
2015,10,15,15,57,16.80
2015,10,15,15,58,16.80
2015,10,15,15,59,16.80
2015,10,15,16,00,16.80
2015,10,15,16,01,16.90
2015,10,15,16,02,16.90
2015,10,15,16,03,16.90
2015,10,15,16,04,17.00
2015,10,15,16,05,17.00
2015,10,15,16,06,16.90
2015,10,15,16,07,16.90
2015,10,15,16,08,16.90
2015,10,15,16,09,16.80
2015,10,15,16,10,16.80
2015,10,15,16,11,16.80
2015,10,15,16,12,16.70
2015,10,15,16,13,16.70
2015,10,15,16,14,16.60
2015,10,15,16,15,16.60
2015,10,15,16,16,16.60
2015,10,15,16,17,16.60
2015,10,15,16,18,16.60
2015,10,15,16,19,16.50
2015,10,15,16,20,16.50
2015,10,15,16,21,16.50
2015,10,15,16,22,16.50
2015,10,15,16,23,16.50
2015,10,15,16,24,16.50
2015,10,15,16,25,16.50
2015,10,15,16,26,16.50
2015,10,15,16,27,16.60
2015,10,15,16,28,16.60
2015,10,15,16,29,16.60
2015,10,15,16,30,16.60
2015,10,15,16,31,16.60
2015,10,15,16,32,16.60
2015,10,15,16,33,16.50
2015,10,15,16,34,16.50
2015,10,15,16,35,16.50
2015,10,15,16,36,16.40
2015,10,15,16,37,16.40
2015,10,15,16,38,16.40
2015,10,15,16,39,16.40
2015,10,15,16,40,16.40
2015,10,15,16,41,16.40
2015,10,15,16,42,16.40
2015,10,15,16,43,16.40
2015,10,15,16,44,16.30
2015,10,15,16,45,16.30
2015,10,15,16,46,16.20
2015,10,15,16,47,16.20
2015,10,15,16,48,16.10
2015,10,15,16,49,16.10
2015,10,15,16,50,16.00
2015,10,15,16,51,16.00
2015,10,15,16,52,15.90
2015,10,15,16,53,15.80
2015,10,15,16,54,15.80
2015,10,15,16,55,15.70
2015,10,15,16,56,15.70
2015,10,15,16,57,15.70
2015,10,15,16,58,15.70
2015,10,15,16,59,15.60
2015,10,15,17,00,15.60
2015,10,15,17,01,15.60
2015,10,15,17,02,15.60
2015,10,15,17,03,15.60
2015,10,15,17,04,15.60
2015,10,15,17,05,15.60
2015,10,15,17,06,15.60
2015,10,15,17,07,15.60
2015,10,15,17,08,15.50
2015,10,15,17,09,15.50
2015,10,15,17,10,15.40
2015,10,15,17,11,15.40
2015,10,15,17,12,15.40
2015,10,15,17,13,15.30
2015,10,15,17,14,15.30
2015,10,15,17,15,15.30
2015,10,15,17,16,15.20
2015,10,15,17,17,15.20
2015,10,15,17,18,15.20
2015,10,15,17,19,15.20
2015,10,15,17,20,15.10
2015,10,15,17,21,15.10
2015,10,15,17,22,15.10
2015,10,15,17,23,15.10
2015,10,15,17,24,15.00
2015,10,15,17,25,15.00
2015,10,15,17,26,15.00
2015,10,15,17,27,14.90
2015,10,15,17,28,14.90
2015,10,15,17,29,14.90
2015,10,15,17,30,14.90
2015,10,15,17,31,14.90
2015,10,15,17,32,14.80
2015,10,15,17,33,14.80
2015,10,15,17,34,14.80
2015,10,15,17,35,14.80
2015,10,15,17,36,14.80
2015,10,15,17,37,14.70
2015,10,15,17,38,14.70
2015,10,15,17,39,14.70
2015,10,15,17,40,14.70
2015,10,15,17,41,14.60
2015,10,15,17,42,14.60
2015,10,15,17,43,14.60
2015,10,15,17,44,14.60
2015,10,15,17,45,14.60